Effective Sunday, March 17, 2024, the National Weather Service National Data Buoy Center will discontinue its Dial-A-Buoy Interactive Voice Response system. For more information, see Service Change Notice 24-06 (PDF).

Station KWNW3 - 9087069 - Kewaunee MET, WI Image indicating link to RSS feed of recent meteorological observations for station KWNW3


Conditions at KWNW3 as of
(10:00 am CST)
1600 GMT on 03/02/2024:
     

Click on the graph icon in the table below to see a time series plot of the last five days of that observation.

5-day plot - Wind Direction Wind Direction (WDIR): S ( 170 deg true )
5-day plot - Wind Speed Wind Speed (WSPD): 9.9 kts
5-day plot - Wind Gust Wind Gust (GST): 9.9 kts
5-day plot - Atmospheric Pressure Atmospheric Pressure (PRES):30.02 in
5-day plot - Pressure Tendency Pressure Tendency (PTDY):+0.02 in ( Rising )
5-day plot - Air Temperature Air Temperature (ATMP): 38.1 °F
5-day plot - Wind Chill Wind Chill (CHILL): 30.7 °F
5-day plot - Wind Speed at 10 Meters Wind Speed at 10 meters (WSPD10M): 9.7 kts
5-day plot - Wind Speed at 20 Meters Wind Speed at 20 meters (WSPD20M): 9.7 kts
5-day plot -  Wind Speed, Wind Gust and Atmospheric Pressure Combined plot of Wind Speed, Gust, and Air Pressure
NOS Water Level Observation Network Water Level
Previous observations
TIME
(CST)
5-day plot - Wind Direction
WDIR
 
5-day plot - Wind Speed
WSPD
kts
5-day plot - Wind Gust
GST
kts
5-day plot - Wave Height
WVHT
ft
5-day plot - Dominant Wave Period
DPD
sec
5-day plot - Average Wave Period
APD
sec
5-day plot - Mean Wave Direction
MWD
 
5-day plot - Atmospheric Pressure
PRES
in
5-day plot - Pressure Tendency
PTDY
in
5-day plot - Air Temperature
ATMP
°F
5-day plot - Water Temperature
WTMP
°F
5-day plot - Dew Point
DEWP
°F
5-day plot - Salinity
SAL
psu
5-day plot - Visibility
VIS
nmi
5-day plot - Tide (above MLLW)
TIDE
ft
2024-03-02 09:54 am S 8.9 9.9----30.02- 38.1-----
2024-03-02 09:48 am S 8.9 9.9----30.02- 37.9-----
2024-03-02 09:42 am S 8.9 9.9----30.02- 37.9-----
2024-03-02 09:36 amSSE 8.0 8.9----30.02- 38.5-----
2024-03-02 09:30 am S 5.1 8.0----30.01-------
2024-03-02 09:24 amSSW 5.1 11.1----30.01-------
2024-03-02 09:18 amSSW 5.1 8.9----30.02- 40.5-----
2024-03-02 09:12 amSSW 6.0 11.1----30.02- 40.3-----
2024-03-02 09:06 amSSW 8.0 12.0----30.02- 39.9-----
2024-03-02 09:00 amSSW 8.0 11.1----30.02+0.02 39.7-----
2024-03-02 08:54 amSSW 5.1 11.1----30.02- 39.2-----
2024-03-02 08:48 am S 7.0 8.0----30.02- 39.0-----
2024-03-02 08:42 amSSW 5.1 9.9----30.02- 38.3-----
2024-03-02 08:36 am S 6.0 9.9----30.01- 38.1-----
2024-03-02 08:30 am S 8.9 9.9----30.01- 37.8-----
2024-03-02 08:24 am S 8.0 9.9----30.01- 37.6-----
2024-03-02 08:18 am S 7.0 8.9----30.01- 37.6-----
2024-03-02 08:12 amSSW 4.1 8.0----30.02- 37.2-----
2024-03-02 08:06 amSSW 4.1 7.0----30.01- 36.9-----
2024-03-02 08:00 amSSW 2.9 8.0----30.01+0.01 36.7-----
2024-03-02 07:54 amSSW 2.9 6.0----30.02- 36.3-----
2024-03-02 07:48 amSSW 5.1 8.9----30.02- 36.0-----
2024-03-02 07:42 amSSW 6.0 8.9----30.02- 35.8-----
2024-03-02 07:36 amSSW 7.0 9.9----30.01- 35.4-----
2024-03-02 07:30 amSSW 7.0 11.1----30.01- 35.4-----
2024-03-02 07:24 am S 8.0 11.1----30.01- 35.2-----
2024-03-02 07:18 am S 8.0 9.9----30.00- 35.1-----
2024-03-02 07:12 amSSW 5.1 8.9----30.00- 35.1-----
2024-03-02 07:06 amSSW 7.0 9.9----30.00- 35.1-----
2024-03-02 07:00 amSSW 6.0 8.9----30.00+0.00 35.1-----
2024-03-02 06:54 am S 8.0 8.9----30.00- 35.1-----
2024-03-02 06:48 am S 6.0 8.9----30.01-------
2024-03-02 06:42 amSSW 2.9 8.0----30.01-------
2024-03-02 06:36 amSSW 6.0 8.9----30.01-------
2024-03-02 06:30 amSSW 8.0 9.9----30.00- 35.8-----
2024-03-02 06:24 amSSW 8.9 11.1----30.00- 35.8-----
2024-03-02 06:18 amSSW 8.9 11.1----30.00- 35.8-----
2024-03-02 06:12 amSSW 9.9 12.0----30.00- 35.6-----
2024-03-02 06:06 amSSW 11.1 13.0----30.00- 35.4-----
2024-03-02 06:00 amSSW 9.9 12.0----30.00-0.01 35.2-----
2024-03-02 05:54 amSSW 8.9 11.1----30.00- 35.2-----
2024-03-02 05:48 amSSW 8.0 9.9----30.00- 35.2-----
2024-03-02 05:42 amSSW 8.9 9.9----30.00- 35.2-----
2024-03-02 05:36 amSSW 8.0 9.9----30.00- 35.2-----
2024-03-02 05:30 am-------30.00-------
2024-03-02 05:24 am-------30.00-------
2024-03-02 05:18 amSSW 8.9 12.0----30.00- 35.8-----
2024-03-02 05:12 amSSW 9.9 12.0----30.00- 36.0-----
2024-03-02 05:06 amSSW 9.9 13.0----30.00- 36.1-----
2024-03-02 05:00 amSSW 8.9 12.0----30.00+0.00------
2024-03-02 04:54 amSSW 8.9 12.0----30.01-------
2024-03-02 04:48 amSSW 9.9 13.0----30.01-------
2024-03-02 04:42 amSSW 11.1 12.0----30.01-------
2024-03-02 04:36 amSSW 9.9 12.0----30.00-------
2024-03-02 04:30 amSSW 8.9 12.0----30.00- 36.5-----
2024-03-02 04:24 amSSW 8.0 11.1----30.00- 36.7-----
2024-03-02 04:18 amSSW 9.9 12.0----30.00-------
2024-03-02 04:12 amSSW 9.9 13.0----30.00-------
2024-03-02 04:06 amSSW 9.9 13.0----30.00-------
2024-03-02 04:00 amSSW 8.9 13.0----30.00+0.00 37.0-----
2024-03-02 03:54 amSSW 9.9 12.0----30.00- 36.9-----
2024-03-02 03:48 amSSW 8.9 12.0----30.00- 36.9-----
2024-03-02 03:42 amSSW 9.9 12.0----30.00- 37.0-----
2024-03-02 03:36 amSSW 9.9 12.0----30.01- 36.9-----
2024-03-02 03:30 amSSW 8.0 9.9----30.00- 37.0-----
2024-03-02 03:24 amSSW 8.9 9.9----30.00- 36.9-----
2024-03-02 03:18 amSSW 8.0 9.9----30.01- 37.0-----
2024-03-02 03:12 amSSW 8.0 9.9----30.01- 37.2-----
2024-03-02 03:06 amSSW 8.0 9.9----30.01- 37.2-----
2024-03-02 03:00 amSSW 7.0 8.9----30.01+0.00 37.2-----
2024-03-02 02:54 amSSW 7.0 8.9----30.01- 37.4-----
2024-03-02 02:48 amSSW 7.0 8.9----30.01- 37.2-----
2024-03-02 02:42 amSSW 8.0 8.9----30.01- 37.4-----
2024-03-02 02:36 amSSW 8.0 8.9----30.01- 37.4-----
2024-03-02 02:30 amSSW 8.0 8.9----30.00- 37.2-----
2024-03-02 02:24 amSSW 6.0 8.0----30.00- 37.4-----
2024-03-02 02:18 amSSW 7.0 8.9----30.00- 37.2-----
2024-03-02 02:12 amSSW 8.0 9.9----30.00- 37.2-----
2024-03-02 02:06 amSSW 8.0 9.9----30.01- 37.2-----
2024-03-02 02:00 amSSW 8.0 9.9----30.01+0.00 37.2-----
2024-03-02 01:54 amSSW 8.0 9.9----30.01- 37.2-----
2024-03-02 01:48 amSSW 7.0 8.9----30.01- 37.2-----
2024-03-02 01:42 amSSW 7.0 8.9----30.01- 37.2-----
2024-03-02 01:36 amSSW 6.0 8.0----30.01- 37.0-----
2024-03-02 01:30 amSSW 6.0 8.0----30.01- 37.0-----
2024-03-02 01:24 amSSW 5.1 8.0----30.01- 36.9-----
2024-03-02 01:18 amSSW 5.1 8.0----30.01- 36.7-----
2024-03-02 01:12 amSSW 5.1 7.0----30.01- 36.7-----
2024-03-02 01:06 amSSW 5.1 8.0----30.01- 36.7-----
2024-03-02 01:00 amSSW 6.0 9.9----30.01+0.00 37.0-----
2024-03-02 12:54 amSSW 8.0 12.0----30.01- 37.0-----
2024-03-02 12:48 am SW 7.0 9.9----30.00- 37.0-----
2024-03-02 12:42 am SW 7.0 8.9----30.00- 37.0-----
2024-03-02 12:36 amSSW 7.0 9.9----30.00- 37.0-----
2024-03-02 12:30 amSSW 8.0 9.9----30.01- 36.9-----
2024-03-02 12:24 am SW 8.0 8.9----30.01- 36.9-----
2024-03-02 12:18 am SW 8.0 11.1----30.00- 36.7-----
2024-03-02 12:12 am SW 7.0 9.9----30.00- 36.7-----
2024-03-02 12:06 am SW 8.0 8.9----30.00- 35.8-----
2024-03-02 12:00 am W 5.1 7.0----30.00+0.01 35.8-----
2024-03-01 11:54 pmWSW 4.1 8.0----30.00- 36.1-----
2024-03-01 11:48 pmWSW 5.1 8.0----30.00- 36.1-----
2024-03-01 11:42 pmWSW 4.1 7.0----30.00- 36.9-----
2024-03-01 11:36 pmWSW 5.1 8.0----30.00- 37.0-----
2024-03-01 11:30 pm SW 6.0 8.9----30.00- 37.2-----
2024-03-01 11:24 pm SW 6.0 9.9----30.00- 37.0-----
2024-03-01 11:18 pm SW 7.0 12.0----30.00- 37.2-----
2024-03-01 11:12 pm SW 8.9 12.0----30.00- 37.4-----
2024-03-01 11:06 pmSSW 8.0 12.0----30.01- 37.4-----
2024-03-01 11:00 pmSSW 8.9 14.0----30.01+0.01 37.6-----
2024-03-01 10:54 pmSSW 8.9 13.0----30.01- 37.6-----
2024-03-01 10:48 pmSSW 9.9 13.0----30.01- 37.8-----
2024-03-01 10:42 pmSSW 9.9 13.0----30.01- 37.8-----
2024-03-01 10:36 pmSSW 8.9 12.0----30.01- 37.8-----
2024-03-01 10:30 pmSSW 9.9 12.0----30.01- 37.8-----
2024-03-01 10:24 pmSSW 8.9 14.0----30.01- 37.9-----
2024-03-01 10:18 pmSSW 9.9 14.0----30.01- 37.9-----
2024-03-01 10:12 pmSSW 8.9 12.0----30.01- 38.1-----
2024-03-01 10:06 pmSSW 9.9 14.0----30.01- 38.3-----
2024-03-01 10:00 pmSSW 11.1 15.0----30.00+0.01 38.7-----
2024-03-01 09:54 pmSSW 13.0 15.9----30.00- 38.7-----
2024-03-01 09:48 pmSSW 13.0 15.9----30.00- 38.8-----
2024-03-01 09:42 pmSSW 13.0 17.1----30.00- 38.8-----
2024-03-01 09:36 pmSSW 13.0 19.0----29.99- 38.7-----
2024-03-01 09:30 pm S 15.0 19.0----29.99- 38.7-----
2024-03-01 09:24 pm S 15.9 19.0----29.99- 38.5-----
2024-03-01 09:18 pm S 15.9 19.0----29.99- 38.5-----
2024-03-01 09:12 pm S 15.0 18.1----29.99- 38.3-----
2024-03-01 09:06 pm S 15.0 19.0----29.99- 38.1-----
2024-03-01 09:00 pm S 15.9 20.0----29.99+0.00 38.1-----
2024-03-01 08:54 pm S 15.0 18.1----29.99- 38.1-----
2024-03-01 08:48 pm S 15.9 18.1----29.99- 38.1-----
2024-03-01 08:42 pm S 15.9 19.0----29.99- 38.1-----
2024-03-01 08:36 pm S 17.1 20.0----29.99- 38.1-----
2024-03-01 08:30 pm S 17.1 19.0----29.99- 38.3-----
2024-03-01 08:24 pm S 15.9 18.1----29.99- 38.3-----
2024-03-01 08:18 pm S 13.0 18.1----29.99- 38.5-----
2024-03-01 08:12 pm S 15.0 20.0----29.99- 38.5-----
2024-03-01 08:06 pmSSW 13.0 17.1----30.00- 38.5-----
2024-03-01 08:00 pmSSW 15.9 19.0----30.00+0.00 38.5-----
2024-03-01 07:54 pmSSW 14.0 18.1----30.00- 38.5-----
2024-03-01 07:48 pmSSW 15.0 18.1----30.00- 38.5-----
2024-03-01 07:42 pmSSW 14.0 18.1----30.00- 38.5-----
2024-03-01 07:36 pmSSW 13.0 19.0----30.00- 38.5-----
2024-03-01 07:30 pmSSW 15.0 18.1----30.00- 38.3-----
2024-03-01 07:24 pmSSW 15.0 18.1----30.00- 38.1-----
2024-03-01 07:18 pm S 15.9 20.0----29.99- 38.1-----
2024-03-01 07:12 pm S 15.9 19.0----30.00- 38.1-----
2024-03-01 07:06 pm S 15.9 20.0----30.00- 37.9-----
2024-03-01 07:00 pm S 17.1 20.0----29.99-0.02 37.9-----
2024-03-01 06:54 pm S 18.1 20.0----29.99- 37.9-----
2024-03-01 06:48 pm S 18.1 20.0----29.99- 37.9-----
2024-03-01 06:42 pm S 18.1 22.0----29.99- 37.8-----
2024-03-01 06:36 pm S 18.1 20.0----29.99- 37.8-----
2024-03-01 06:30 pm S 18.1 22.0----29.99- 37.8-----
2024-03-01 06:24 pm S 18.1 21.0----29.99- 37.8-----
2024-03-01 06:18 pm S 18.1 21.0----30.00- 37.8-----
2024-03-01 06:12 pm S 18.1 21.0----30.00- 37.6-----
2024-03-01 06:06 pm S 17.1 21.0----30.00- 37.6-----
2024-03-01 06:00 pm S 18.1 21.0----30.00-0.03 37.6-----
2024-03-01 05:54 pm S 19.0 22.9----29.99- 37.4-----
2024-03-01 05:48 pm S 18.1 21.0----30.00- 37.4-----
2024-03-01 05:42 pm S 18.1 20.0----30.00- 37.4-----
2024-03-01 05:36 pm S 18.1 21.0----30.00- 37.4-----
2024-03-01 05:30 pm S 18.1 21.0----30.00- 37.6-----
2024-03-01 05:24 pm S 18.1 21.0----30.00- 37.4-----
2024-03-01 05:18 pm S 18.1 20.0----30.00- 37.4-----
2024-03-01 05:12 pm S 18.1 22.0----30.00- 37.4-----
2024-03-01 05:06 pm S 18.1 22.0----30.00- 37.6-----
2024-03-01 05:00 pm S 19.0 22.9----30.00-0.04 37.6-----
2024-03-01 04:54 pm S 19.0 24.1----30.00- 37.6-----
2024-03-01 04:48 pm S 20.0 24.1----30.01- 37.8-----
2024-03-01 04:42 pm S 21.0 25.1----30.01- 37.8-----
2024-03-01 04:36 pm S 21.0 25.1----30.01- 37.8-----
2024-03-01 04:30 pm S 21.0 25.1----30.01- 37.8-----
2024-03-01 04:24 pm S 20.0 22.0----30.01- 37.8-----
2024-03-01 04:18 pm S 19.0 22.9----30.01- 37.8-----
2024-03-01 04:12 pm S 19.0 24.1----30.01- 37.8-----
2024-03-01 04:06 pm S 19.0 24.1----30.01- 37.8-----
2024-03-01 04:00 pm S 20.0 24.1----30.01-0.04 37.8-----
2024-03-01 03:54 pm S 19.0 22.9----30.01- 37.8-----
2024-03-01 03:48 pm S 18.1 22.9----30.01- 37.8-----
2024-03-01 03:42 pm S 19.0 24.1----30.02- 37.8-----
2024-03-01 03:36 pm S 20.0 22.9----30.02- 37.8-----
2024-03-01 03:30 pm S 19.0 24.1----30.02- 37.6-----
2024-03-01 03:24 pm S 19.0 24.1----30.02- 37.8-----
2024-03-01 03:18 pm S 20.0 24.1----30.02- 37.6-----
2024-03-01 03:12 pm S 19.0 22.9----30.02- 37.6-----
2024-03-01 03:06 pm S 21.0 25.1----30.02- 37.6-----
2024-03-01 03:00 pm S 20.0 25.1----30.02-0.04 37.6-----
2024-03-01 02:54 pm S 20.0 22.9----30.02- 37.6-----
2024-03-01 02:48 pm S 20.0 24.1----30.02- 37.6-----
2024-03-01 02:42 pm S 20.0 24.1----30.02- 37.6-----
2024-03-01 02:36 pm S 20.0 22.9----30.02- 37.6-----
2024-03-01 02:30 pm S 20.0 22.9----30.03- 37.6-----
2024-03-01 02:24 pm S 19.0 24.1----30.02- 37.6-----
2024-03-01 02:18 pm S 19.0 24.1----30.03- 37.6-----
2024-03-01 02:12 pm S 19.0 24.1----30.03- 37.6-----
2024-03-01 02:06 pm S 19.0 22.9----30.03- 37.6-----
2024-03-01 02:00 pm S 20.0 24.1----30.03-0.04 37.6-----
2024-03-01 01:54 pm S 19.0 24.1----30.03- 37.6-----
2024-03-01 01:48 pm S 20.0 26.0----30.03- 37.6-----
2024-03-01 01:42 pm S 22.0 26.0----30.04- 37.6-----
2024-03-01 01:36 pm S 21.0 25.1----30.04- 37.6-----
2024-03-01 01:30 pm S 21.0 24.1----30.04- 37.4-----
2024-03-01 01:24 pm S 22.0 26.0----30.04- 37.4-----
2024-03-01 01:18 pm S 22.0 25.1----30.04- 37.4-----
2024-03-01 01:12 pm S 22.9 25.1----30.04- 37.4-----
2024-03-01 01:06 pm S 22.0 25.1----30.05- 37.2-----
2024-03-01 01:00 pm S 21.0 25.1----30.05-0.04 37.2-----
2024-03-01 12:54 pm S 21.0 25.1----30.05- 37.2-----
2024-03-01 12:48 pm S 21.0 25.1----30.05- 37.2-----
2024-03-01 12:42 pm S 20.0 24.1----30.06- 37.0-----
2024-03-01 12:36 pm S 19.0 22.0----30.06- 37.0-----
2024-03-01 12:30 pm S 19.0 22.9----30.06- 37.0-----
2024-03-01 12:24 pm S 20.0 24.1----30.06- 37.0-----
2024-03-01 12:18 pm S 21.0 24.1----30.06- 37.0-----
2024-03-01 12:12 pm S 20.0 22.9----30.06- 36.9-----
2024-03-01 12:06 pm S 19.0 22.9----30.06- 36.9-----
2024-03-01 12:00 pm S 19.0 22.9----30.06-0.04 36.9-----
2024-03-01 11:54 am S 19.0 22.9----30.06- 36.7-----
2024-03-01 11:48 am S 19.0 22.0----30.07- 36.7-----
2024-03-01 11:42 am S 18.1 21.0----30.07- 36.7-----
2024-03-01 11:36 am S 19.0 22.0----30.07- 36.7-----
2024-03-01 11:30 am S 19.0 22.0----30.07- 36.7-----
2024-03-01 11:24 am S 18.1 22.9----30.07- 36.7-----
2024-03-01 11:18 am S 19.0 22.0----30.07- 36.5-----
2024-03-01 11:12 am S 19.0 22.0----30.07- 36.5-----
2024-03-01 11:06 am S 18.1 21.0----30.08- 36.3-----
2024-03-01 11:00 am S 19.0 21.0----30.08-0.03 36.3-----
2024-03-01 10:54 am S 19.0 21.0----30.08- 36.3-----
2024-03-01 10:48 am S 18.1 20.0----30.08- 36.5-----
2024-03-01 10:42 am S 17.1 19.0----30.08- 36.5-----
2024-03-01 10:36 am S 17.1 19.0----30.09- 36.7-----
2024-03-01 10:30 am S 17.1 19.0----30.09- 36.9-----
2024-03-01 10:24 am S 15.0 20.0----30.09- 37.0-----
2024-03-01 10:18 am S 15.9 19.0----30.09- 36.9-----
2024-03-01 10:12 am S 15.9 19.0----30.09- 36.9-----
2024-03-01 10:06 am S 17.1 19.0----30.09- 36.9-----
2024-03-01 10:00 am S 14.0 18.1----30.09-0.01 37.0-----
2024-03-01 09:54 am S 17.1 19.0----30.09- 37.0-----